Location: Lugano
(46.0000°N, 8.9670°E)
Time: 04:33:26
(UTC+02:00)

TIGRISAT - Visible Passes

Search period start: 10 May 2026 00:00
Search period end: 20 May 2026 00:00
Orbit: 579 x 648 km, 97.8° (Epoch: 9 May)

Date Brightness Start Highest point End Pass type
(mag) Time Alt. Az. Time Alt. Az. Time Alt. Az.
10 May ? 03:17:59 10° ESE 03:21:29 23° ENE 03:24:57 10° NNE visible
10 May ? 04:52:59 10° S 04:57:14 41° W 05:01:28 10° NNW visible
11 May ? 03:32:43 10° SE 03:36:38 31° ENE 03:40:32 10° N visible
11 May ? 05:08:40 10° SSW 05:12:35 29° W 05:16:29 10° NW visible
12 May ? 03:47:36 10° SE 03:51:48 43° ENE 03:56:01 10° N visible
13 May ? 04:02:38 10° SSE 04:07:01 61° ENE 04:11:24 10° N visible
14 May ? 02:45:37 10° ENE 02:46:59 11° ENE 02:48:20 10° NE visible
14 May ? 04:17:48 10° SSE 04:22:16 87° ENE 04:26:43 10° NNW visible
15 May ? 02:59:28 10° E 03:02:03 15° ENE 03:04:37 10° NNE visible
15 May ? 04:33:07 10° S 04:37:33 66° W 04:41:56 10° NNW visible
16 May ? 03:13:51 10° ESE 03:17:08 21° ENE 03:20:24 10° NNE visible
16 May ? 04:48:34 10° S 04:52:50 45° W 04:57:05 10° NNW visible
17 May ? 03:28:30 10° SE 03:32:16 28° ENE 03:36:00 10° N visible
17 May ? 05:04:12 10° SSW 05:08:10 32° W 05:12:07 10° NNW visible
18 May ? 03:43:19 10° SE 03:47:25 39° ENE 03:51:30 10° N visible
19 May ? 03:58:17 10° SSE 04:02:36 55° ENE 04:06:53 10° N visible
